RH
74 74 76 83 94 99 100 99 100 99 97 96 94 35 37 29 24 12 7 8 10 12 13 16 26 42 51 56 58 71 83 74 27 18 20 20 20 20 21 23 36 58 62
92 86 81 88 100 100 99 98 100 98 98 80 17 52 46 47 31 8 8 10 12 15 18 24 35 38 29 20 16 16 16 20 22 20 17 18 19 22 33 53 63 57 51
96 97 100 100 100 97 99 99 99 98 86 19 61 74 84 51 9 8 9 13 16 20 26 36 38 32 17 14 14 17 21 21 19 19 20 22 26 44 63 64 60 48 56
91 100 100 100 100 99 98 97 97 95 67 81 90 84 26 17 10 12 14 16 21 26 36 49 41 26 16 14 14 20 20 17 19 22 23 26 38 65 70 60 48 63 63
98 97 100 100 98 93 99 97 96 94 77 91 63 61 48 12 13 20 20 23 31 35 48 53 32 20 16 14 21 20 16 18 19 22 23 28 56 71 62 49 63 62 55
100 100 99 98 99 99 100 99 97 89 95 94 92 40 27 21 20 28 29 36 47 47 59 54 29 19 16 19 22 16 18 19 21 25 29 43 62 72 50 64 70 66 53
98 100 99 98 96 99 98 96 96 95 95 88 83 80 28 16 20 32 36 45 56 61 68 57 30 18 18 25 19 18 20 28 37 44 46 60 72 67 56 74 73 78 74
99 99 99 99 100 97 97 95 94 95 92 81 59 29 22 20 26 37 42 51 64 77 76 55 27 19 21 24 17 18 19 24 33 44 54 70 80 57 76 80 70 64 70
99 100 99 100 99 98 95 93 92 93 88 71 50 24 25 27 30 43 48 52 78 89 78 51 22 24 24 22 17 18 19 24 37 52 64 80 80 55 86 80 69 68 67
96 98 99 99 96 94 95 93 88 84 63 30 25 29 32 32 42 52 56 64 79 78 74 40 22 25 28 21 18 18 18 20 30 45 60 81 78 54 88 86 70 74 70
98 99 97 95 95 95 89 73 62 42 22 23 32 36 38 38 45 52 56 65 80 81 62 28 24 25 29 22 19 17 18 20 25 33 52 63 80 54 68 92 83 78 75
98 96 93 89 64 37 47 51 36 20 19 20 23 34 41 43 46 52 60 69 85 88 56 30 26 27 29 24 20 20 20 20 22 26 37 53 71 82 47 79 93 89 96
78 60 36 27 37 48 37 23 21 23 24 24 28 36 45 50 51 54 61 71 82 88 66 34 28 31 30 29 24 22 21 19 21 23 25 39 53 73 84 47 84 92 89
20 17 22 36 37 26 22 28 29 28 26 25 27 40 48 52 60 59 60 71 88 94 89 39 30 30 32 34 25 24 21 19 18 20 22 24 34 57 77 80 47 86 93
13 17 18 18 18 20 26 30 31 33 37 31 34 46 53 50 64 65 68 78 90 95 94 49 32 31 33 33 30 26 25 23 20 19 19 21 24 31 55 79 72 52 89
15 17 18 20 24 29 29 26 30 32 43 53 51 48 56 63 68 79 76 83 96 95 86 51 37 30 31 31 34 30 30 30 26 22 20 19 20 22 31 55 86 60 64
21 23 25 27 28 29 30 29 28 33 44 62 61 66 74 75 72 84 85 90 100 98 83 52 43 32 32 31 34 36 33 36 35 30 25 22 19 19 22 31 54 87 56
27 29 31 33 36 37 36 47 79 82 90 79 80 89 77 87 85 90 88 100 92 99 83 57 51 33 30 33 36 38 38 39 42 42 37 30 25 20 19 23 30 54 86
29 28 29 27 26 30 48 80 84 90 99 90 80 80 91 80 85 100 99 99 95 100 90 64 61 35 29 31 36 38 42 44 47 51 53 46 36 29 23 20 23 31 57
12 11 12 13 14 18 26 42 76 87 94 85 81 85 87 86 86 95 100 100 99 100 99 77 74 47 29 28 34 37 39 45 49 53 58 61 54 40 35 25 21 24 34
10 9 8 7 7 8 15 54 80 85 83 99 100 84 95 96 100 98 97 100 99 99 100 96 94 86 53 32 30 34 37 40 46 51 56 62 69 64 50 39 26 22 25
8 6 7 9 11 12 12 22 96 100 97 98 93 94 91 98 100 100 98 96 100 100 99 98 98 99 98 69 40 35 37 40 44 49 53 58 66 78 72 56 42 27 24
8 10 12 13 14 14 15 25 99 100 89 90 100 88 90 100 100 100 97 100 100 98 100 100 100 98 100 100 100 98 96 89 68 54 55 57 60 73 84 75 62 44 28
12 12 12 12 14 28 74 81 74 93 98 90 99 84 82 98 100 100 100 97 100 100 100 100 100 99 100 99 100 100 100 100 100 100 99 82 64 65 80 88 78 66 45
12 11 12 14 18 40 100 98 94 100 100 100 100 97 90 87 99 100 100 99 100 100 100 99 100 100 100 100 100 100 100 99 98 99 100 100 100 81 76 93 92 78 67
12 14 15 16 20 30 71 100 100 100 100 100 100 98 87 84 89 99 100 100 100 96 100 99 81 62 66 78 92 100 100 100 100 100 100 100 100 100 97 94 98 90 80
Wind_Speed
33 32 33 33 35 35 42 44 50 49 40 34 30 30 31 32 33 35 36 34 35 35 33 31 30 31 33 34 36 36 35 36 38 41 40 42 43 42 39 39 39 37 35
37 39 39 39 39 40 44 48 48 47 36 30 27 30 31 34 34 35 37 36 34 32 30 29 29 30 30 29 29 29 29 32 37 41 41 41 39 38 38 35 33 33 34
37 40 43 43 44 46 45 47 50 41 33 26 29 32 37 32 35 35 36 33 32 31 30 28 28 30 30 28 28 29 31 33 36 39 40 37 37 35 33 31 33 33 33
38 39 41 43 45 46 50 46 39 32 28 30 31 33 33 36 37 33 32 32 30 28 28 28 29 30 29 29 28 29 33 34 34 34 34 34 33 31 31 32 33 31 29
39 39 41 43 46 48 44 43 37 31 26 31 27 28 34 37 37 29 28 29 29 27 27 27 28 28 29 29 28 30 32 32 32 32 32 32 30 28 29 30 32 31 23
39 40 43 46 46 48 49 47 35 28 29 31 25 30 33 37 36 30 27 28 29 27 27 27 27 28 28 27 29 31 32 33 32 33 33 32 28 27 28 29 28 26 22
42 44 47 49 51 56 46 37 30 31 34 23 27 30 32 34 33 29 27 28 29 28 27 28 28 29 26 24 28 29 30 30 31 31 31 30 28 27 29 25 22 22 17
42 46 49 52 55 46 44 33 31 26 23 28 31 32 32 32 31 29 28 29 29 28 28 28 29 28 24 24 26 27 27 27 27 28 30 28 27 26 25 23 21 20 16
44 49 54 56 57 48 31 27 27 22 25 28 32 33 32 30 30 29 29 29 29 28 28 28 28 26 23 23 23 25 25 24 25 26 26 26 25 25 23 20 18 16 15
50 55 54 55 39 28 42 28 23 25 27 32 32 33 31 29 30 30 30 28 28 27 27 28 27 24 22 22 22 23 24 24 23 23 23 23 22 22 20 18 16 15 11
50 51 45 38 39 34 28 26 24 28 32 31 31 31 31 29 29 30 28 27 26 26 26 26 26 22 21 20 21 22 23 23 23 23 22 22 20 19 18 16 16 14 12
42 37 33 24 27 22 19 23 29 31 32 33 33 31 31 30 29 29 28 26 25 25 26 26 24 22 20 19 20 20 21 22 22 21 21 21 20 18 17 16 16 16 16
22 21 22 17 18 21 27 30 31 32 33 34 34 32 30 31 31 29 27 27 26 25 24 25 23 22 20 19 19 18 18 19 20 20 21 20 21 21 19 17 16 17 17
17 18 19 21 24 28 30 32 33 35 36 36 35 32 31 31 31 31 29 28 26 26 25 24 24 23 21 19 18 17 16 17 19 20 20 21 21 21 20 18 18 14 16
20 22 24 27 29 32 33 35 36 37 37 37 35 34 33 32 32 32 31 29 28 27 27 24 22 22 22 19 17 16 15 16 17 18 19 20 21 20 21 20 18 17 12
23 26 29 32 34 36 38 39 38 39 36 35 35 36 34 32 31 31 30 28 27 27 27 24 22 21 21 19 17 16 15 15 15 16 18 19 21 21 20 20 18 17 15
30 30 33 36 38 41 43 43 43 41 38 36 37 35 34 33 31 30 28 27 26 28 25 23 23 22 21 20 18 17 15 14 15 15 15 17 19 21 20 19 18 17 15
38 41 44 45 44 44 44 42 38 35 41 42 41 35 33 31 29 28 27 27 29 25 23 22 22 22 21 20 18 18 16 15 15 14 15 16 17 19 20 19 18 17 15
41 44 45 47 48 47 43 40 39 40 37 47 42 35 31 32 30 27 26 26 26 24 23 22 20 20 20 19 18 18 16 16 14 14 14 15 16 16 18 19 18 17 16
48 49 49 49 48 46 44 42 39 39 42 45 41 36 33 32 30 26 25 24 24 23 22 21 19 18 18 17 17 17 16 15 15 14 14 14 15 15 15 16 17 16 14
52 53 52 51 48 45 42 39 37 37 37 38 37 33 30 31 27 26 24 24 23 23 23 22 20 17 16 16 15 15 16 16 15 15 15 14 14 14 14 15 15 15 14
53 52 49 46 43 40 37 32 35 32 31 34 36 31 29 26 25 26 25 24 23 21 21 21 19 17 16 15 15 15 16 16 16 16 16 16 14 14 14 13 13 13 13
51 48 44 42 39 37 32 28 29 32 32 29 26 27 24 21 21 26 26 22 22 19 20 21 20 19 18 17 16 14 15 16 18 18 17 18 16 15 14 13 13 12 12
45 44 43 42 39 32 27 28 28 27 26 28 27 23 24 21 21 20 23 23 22 22 20 21 22 21 21 21 21 21 21 20 20 18 19 19 18 17 15 14 13 12 12
44 45 44 40 35 30 25 27 24 26 30 31 27 26 25 26 27 27 29 23 20 21 23 23 24 24 24 23 22 21 21 21 21 23 21 21 21 19 17 15 14 13 12
44 43 40 38 34 31 33 28 28 25 24 24 27 28 25 26 26 26 26 24 22 19 20 22 23 24 23 23 24 25 24 22 20 19 21 21 21 22 20 17 15 14 12
Wind_Direction
274 279 283 285 283 281 276 297 290 283 295 288 298 295 299 306 312 311 312 313 311 310 310 305 298 292 292 292 294 293 293 292 292 295 298 298 297 299 297 295 295 294 291
275 281 285 285 285 280 279 291 284 293 291 304 298 299 304 307 311 311 314 315 314 312 309 306 304 302 304 300 298 295 297 298 299 298 300 302 302 301 301 300 296 294 294
282 282 282 279 280 292 292 287 296 292 300 304 301 302 305 310 311 313 313 315 314 313 313 310 307 305 304 304 304 305 303 302 302 302 305 306 305 305 301 299 296 297 297
293 285 281 287 292 291 288 290 286 295 298 296 299 307 308 310 312 314 315 311 310 312 311 310 308 307 308 305 307 308 306 307 305 304 306 306 309 308 304 305 303 303 301
289 289 291 291 290 293 289 282 282 288 292 294 305 311 311 310 311 312 308 307 311 313 309 306 305 304 303 307 309 308 311 311 310 309 310 313 315 309 308 308 307 310 311
286 286 288 291 293 286 280 280 278 292 287 291 314 314 312 310 311 312 309 308 309 309 306 307 307 304 305 306 309 316 317 317 316 315 316 316 316 314 313 313 314 317 316
282 280 282 287 294 284 280 270 281 284 294 314 313 317 311 309 309 307 305 305 307 307 308 308 307 304 303 309 313 318 319 316 315 316 318 321 318 316 313 316 317 312 317
279 279 277 282 278 273 273 269 294 294 324 320 319 313 310 309 306 305 304 302 304 305 307 306 306 301 305 311 316 319 319 318 319 320 320 320 316 317 316 316 316 311 310
277 277 282 279 271 266 284 302 299 319 321 318 311 308 310 306 304 304 301 300 302 302 305 307 302 298 304 309 317 320 324 322 323 324 324 320 318 319 314 311 314 318 331
280 276 278 273 282 301 312 312 329 329 319 309 310 310 308 308 305 303 301 299 299 302 305 302 297 295 301 309 317 322 328 329 329 326 327 324 317 318 310 302 308 319 335
286 280 279 303 301 308 323 329 325 309 309 310 311 310 308 308 303 300 298 300 301 303 301 296 292 292 297 305 314 324 329 332 331 330 333 330 328 319 316 296 296 302 310
296 302 305 314 316 322 322 309 302 307 310 312 313 311 306 305 302 301 301 304 302 299 296 295 292 291 295 304 312 321 329 332 334 332 331 336 334 326 324 312 287 281 290
311 312 307 306 314 310 302 303 305 308 312 314 311 308 306 303 301 302 304 302 298 293 294 294 291 285 289 298 306 313 324 329 337 339 338 336 338 339 331 328 307 280 275
296 298 308 309 302 301 304 306 306 308 310 309 307 307 306 305 303 301 300 297 296 294 293 292 289 285 284 289 293 305 317 327 336 343 344 343 341 341 338 333 335 305 277
312 311 305 303 303 304 303 304 305 307 306 306 309 308 307 304 302 295 293 293 293 291 290 292 289 281 276 278 287 296 310 322 329 338 344 347 344 341 341 342 339 341 311
310 307 305 305 304 303 303 304 304 305 303 305 307 305 302 301 298 292 288 286 288 287 287 293 292 283 277 274 279 287 298 309 318 330 340 347 346 346 345 345 345 341 344
310 306 303 303 303 304 303 302 302 299 301 305 308 303 299 298 295 291 284 283 283 283 288 291 289 284 277 273 273 280 286 297 307 319 330 339 344 349 348 346 349 348 346
312 312 311 310 306 303 301 300 301 304 305 303 305 301 301 296 294 291 285 277 279 282 283 285 287 285 279 275 269 272 280 287 298 310 320 327 337 344 350 350 349 351 350
308 308 306 304 303 302 301 298 295 290 287 293 297 295 299 297 293 290 287 277 275 276 277 280 283 282 278 272 265 267 273 280 290 301 311 317 323 333 345 349 352 351 351
312 310 308 306 304 301 296 293 288 284 285 289 291 294 297 297 293 288 283 277 269 271 271 274 279 281 280 276 268 264 268 273 280 289 299 307 313 323 334 342 349 353 350
312 310 308 307 305 301 296 293 293 295 286 285 288 292 294 293 291 293 286 278 274 270 271 264 270 275 278 276 273 268 268 270 274 281 288 298 310 317 322 330 340 347 353
314 313 313 311 310 307 300 292 293 285 292 290 292 294 297 288 284 290 295 285 277 276 270 273 267 268 273 275 273 272 271 272 275 277 281 287 296 307 312 317 327 336 344
315 315 315 314 313 311 304 282 273 292 297 292 292 303 297 289 289 289 295 286 274 271 271 267 267 265 263 263 267 272 276 274 269 271 274 277 283 292 300 306 312 320 330
315 314 313 313 312 309 307 300 286 285 287 288 289 304 306 290 287 286 290 297 281 268 265 263 266 265 265 264 263 265 270 273 275 279 273 270 274 278 287 294 300 307 313
317 315 314 311 305 295 285 296 288 278 266 269 278 295 297 298 276 269 279 282 285 274 263 262 265 266 264 266 267 267 267 268 271 271 270 272 268 267 272 283 288 294 298
319 319 318 313 306 294 277 281 282 262 274 280 280 286 290 295 294 285 276 263 260 269 270 272 272 269 266 263 262 262 264 265 269 272 269 266 267 266 264 269 277 283 292